STARLINK-37152, 68616

Orbit data source: Space-Track

STARLINK-37152, 68616 is a payload satellite owned by SpaceX/Seattle (US) in SSO that was launched on Sun, 05 Apr 2026 UTC via an FALCON 9 launch vehicle from the Air Force Western Test Range (AFWTR). Payload-class satellites include a variety of spacecraft equipped with specific instruments for various scientific and technological missions. These include communications satellites like Starlink; space stations such as the ISS; scientific satellites like the Hubble; Earth observation satellites from companies like Planet Labs, Umbra, and HawkEye 360; GPS; miniature CubeSats for education and research; and military/defense satellites.

Loading next visibility...
Identifier
68616, 2026-073Q
Orbit
SSO
Country
Flag of USUS
Related business
Manufacturer
SpaceX/Seattle
Mission
Operational spacecraft
Bus & Motor
STARLINK V2MO, Unknown motor
Mass
575 kg wet, ~530 kg dry
Launch date (UTC)
2026-04-05 (3 months ago)
Launch vehicle
FALCON 9
Launch site
Air Force Western Test Range (AFWTR)
Object type
Payload
Rocket body
Debris
Shape & HBR
Unknown shape, 2.2 m
Radar Cross Section
Large (>1 m²)

Expand to show TLE details & history
Last TLE update: 11 hours ago

TLE from 11 hours ago
0 STARLINK-37152
1 68616U 26073Q   26171.43859865  .00016423  00000-0  50974-3 0  9994
2 68616  97.2875  10.7804 0001731  86.8943 273.2497 15.33455643 11631
Epoch: 2026-06-20T10:31Z
TLE epoch observation values (Epoch: 2026-06-20T10:31:34.923Z)
Latitude
-0.00009°
Longitude
-55.76832°
Altitude
468.556 km
Speed
7.632 km/s
True Right ascension
00h 43m 07s
True Declination
0° 00' 00"
Sunlit
Object was in daylight at epoch
Visualization orbit readout
Latitude
Unknown
Longitude
Unknown
Altitude
Unknown
Speed
Unknown
Apparent Right ascension
Unknown
Apparent Declination
Unknown
Sunlit
N/A
Visualization observer readout
Local Sidereal Time
08:32:43
Azimuth
Unknown
Elevation
Unknown
Doppler factor
Unknown
Orbital elements
Apogee altitude
463.638 km
Perigee altitude
461.27 km
Semi-major axis
6,840.591 km
Eccentricity
0.00017
Inclination
97.2875°
RAAN
10.7804°
Arg. of periapsis
86.8943°
True anomaly
273.2299°
Mean anomaly
273.2497°
Eccentric anomaly
273.2398°
Mean motion
3.83621 °/min
Orbital period
93.84 mins
BSTAR
0.00050974
Loading maneuver chart data...
Computing Atmospheric mass density...
Loading historical data...
Loading historical data...
Loading historical data...
Loading historical data...
Loading historical data...
Loading historical data...
Loading historical data...

Documentation

Showing up to 5 results
|